Terminal Aerodrome Forecast
Issued by NWS

Current Version | Previous Version | Text Only | Print | Product List | Glossary On
Versions: 1 2 3 4 5 6 7 8 9 10 11 12
000
FTUS45 KPSR 301120
TAFIPL
TAF
KIPL 301120Z 3012/0112 12006KT P6SM FEW150 BKN250
     FM302100 18009KT P6SM SCT100
     FM010100 23010KT P6SM SCT100 BKN250
     FM011000 VRB05KT P6SM VCSH BKN090=

USA.gov is the U.S. government's official web portal to all federal, state and local government web resources and services.